{"data":{"norad_id":60417,"intl_designator":"2024-141V","name":"STARLINK-32255","alt_names":[],"object_type":"PAYLOAD","status":"ACTIVE","operator":null,"country":"US","launch_date":"2024-08-10","launch_site_code":"AFETR","launch_vehicle":null,"mission":null,"orbit_class":"UNKNOWN","rcs_meters":null,"size_class":null,"mass_kg":null,"dimensions":null,"purposes":["comms"],"wikipedia_slug":null,"has_3d_model":false,"image_url":null,"decayed_at":null,"tle_current":{"epoch":"2026-09-21T14:37:54.973920Z","epoch_age_seconds":89706,"freshness":"FRESH","line1":"1 60417U 24141V   26264.60966405 -.00000902  00000+0 -15589-4 0  9990","line2":"2 60417  53.1609  48.5311 0001049  82.0426 278.0696 15.34386354119632","mean_motion":15.34386354,"eccentricity":0.0001049,"inclination_deg":53.1609,"raan_deg":48.5311,"arg_perigee_deg":82.0426,"mean_anomaly_deg":278.0696,"bstar":-1.5589e-5,"rev_number":11963,"period_min":93.848592712393,"perigee_km":462.02619089961,"apogee_km":463.4614076913,"semimajor_km":6840.8807992955,"source":"CELESTRAK","updated_at":"2026-09-22T09:00:49.232836Z"}}}